Flag for United Kingdom Weather past 2 weeks in Ipswich, England, United Kingdom

Now
57 °F

Sunny.


Feels Like: 55 °F
Forecast: 49 / 60 °F
Wind: 9 mph from Southwest

Location: Wattisham

Current Time: May 27, 2015 at 11:33:53 PM

Latest Report: May 27, 2015 at 9:50 PM


Visibility: 10 mi

Pressure: 29.95 "Hg

Humidity: 67%

Dew point: 46 °F

Location of IpswichLocation

Historic Weather in Ipswich — Graph

°F

Ipswich temperature yesterday

Maximum temperature yesterday: 63 °F (at 1:50 PM)
Minimum temperature yesterday: 43 °F (at 12:50 AM)
Average temperature yesterday: 53 °F

Past Weeks' High & Low Weather Summary

 TemperatureHumidityPressure
High64 °F (May 21, 4:50 PM)100% (May 13, 4:50 AM)30.30 "Hg (May 13, 4:50 AM)
Low37 °F (May 13, 4:50 AM)42% (May 13, 2:50 PM)29.50 "Hg (May 18, 2:50 PM)
Average51 °F76%30.07 "Hg
* Reported May 12 9:50 PM — May 27 9:50 PM, Ipswich, Weather by CustomWeather, © 2015

Note: Actual official high and low records may vary slightly from our data, if they occured in-between our weather recording intervals... More about our weather records

Advertising

Ipswich weather history for previous 24 hours

 ConditionsComfort  
Time TempWeatherWind HumidityBarometerVisibility
9:50 PM
Wed, May 27
57 °FSunny.9 mph67%29.95 "Hg10 mi
8:50 PM59 °FPartly sunny.10 mph63%29.98 "HgN/A
7:50 PM61 °FSunny.7 mph55%29.98 "Hg10 mi
6:50 PM61 °FSunny.9 mph55%30.01 "Hg10 mi
5:50 PM63 °FSunny.10 mph52%30.04 "Hg10 mi
4:50 PM64 °FPartly sunny.13 mph46%30.07 "HgN/A
3:50 PM64 °FPartly sunny.12 mph49%30.09 "HgN/A
2:50 PM63 °FScattered clouds.13 mph52%30.12 "HgN/A
1:50 PM61 °FPassing clouds.9 mph55%30.15 "HgN/A
12:50 PM59 °FPassing clouds.7 mph55%30.18 "HgN/A
11:50 AM57 °FPassing clouds.9 mph59%30.21 "HgN/A
10:50 AM55 °FPassing clouds.8 mph59%30.21 "HgN/A
9:50 AM54 °FPassing clouds.8 mph67%30.24 "HgN/A
8:50 AM52 °FPassing clouds.9 mph72%30.24 "HgN/A
7:50 AM48 °FPassing clouds.9 mph82%30.27 "HgN/A
6:50 AM46 °FPartly sunny.9 mph82%30.27 "HgN/A
5:50 AM43 °FSunny.7 mph87%30.24 "Hg10 mi
4:50 AM41 °FClear.8 mph93%30.24 "Hg10 mi
3:50 AM43 °FQuite cool.8 mph87%30.24 "HgN/A
2:50 AM45 °FQuite cool.8 mph87%30.27 "HgN/A
1:50 AM46 °FPassing clouds.8 mph82%30.27 "HgN/A
12:50 AM50 °FPassing clouds.8 mph76%30.27 "HgN/A
11:50 PM
Tue, May 26
50 °FPassing clouds.6 mph94%30.27 "HgN/A
Weather by CustomWeather, © 2015

See weather overviewHow to use our weather pages